Regional Weather Roundup
Issued by NWS

Home | Current Version | Previous Version | Text Only | Print | Product List | Glossary On
Versions: 1 2 3 4 5 6 7 8 9 10 11 12 13 14 15 16 17 18 19 20 21 22 23 24 25 26 27 28 29 30 31 32 33 34 35 36 37 38 39 40 41 42 43 44 45 46 47 48 49 50
000
ASUS43 KTOP 261759
RWRKS

WEATHER ROUNDUP FOR KANSAS
NATIONAL WEATHER SERVICE GOODLAND KS
100 PM CDT THU MAR 26 2015

NOTE:  "FAIR" INDICATES FEW OR NO CLOUDS BELOW 12,000 FEET WITH NO
SIGNIFICANT WEATHER AND/OR OBSTRUCTIONS TO VISIBILITY.

KSZ001>006-013>018-027>032-041>047-261900-
NORTHWEST KANSAS

CITY           SKY/WX    TMP DP  RH WIND       PRES   REMARKS
GOODLAND       CLOUDY    56  26  31 NW16G28   30.14F
6HR MIN TEMP:  27; 6HR MAX TEMP:  57;

HAYS           MOSUNNY   52  28  40 W6        30.19F
HILL CITY      MOSUNNY   53  32  44 SW10G18   30.16F
6HR MIN TEMP:  22; 6HR MAX TEMP:  53;

RUSSELL        SUNNY     50  29  44 W7        30.18F
6HR MIN TEMP:  25; 6HR MAX TEMP:  50;

$$

KSZ061>065-074>080-084>089-261900-
SOUTHWEST KANSAS

CITY           SKY/WX    TMP DP  RH WIND       PRES   REMARKS
DODGE CITY     SUNNY     55  29  36 SW13      30.21F
6HR MIN TEMP:  25; 6HR MAX TEMP:  55;

ELKHART          N/A     55  32  41 W12         N/A
GARDEN CITY    SUNNY     54  34  46 W14G24    30.18F
6HR MIN TEMP:  25; 6HR MAX TEMP:  54;

GREAT BEND     SUNNY     48  30  49 W6        30.21F
LIBERAL        SUNNY     54  37  54 W7        30.25F
$$

KSZ066>073-081>083-090>101-261900-
SOUTHEAST KANSAS

CITY           SKY/WX    TMP DP  RH WIND       PRES   REMARKS
CHANUTE        SUNNY     49  29  46 N10       30.20F
6HR MIN TEMP:  37; 6HR MAX TEMP:  49;

COFFEYVILLE    SUNNY     51  29  42 N12G21    30.21F
6HR MIN TEMP:  39; 6HR MAX TEMP:  51;

HUTCHINSON     SUNNY     50  27  40 CALM      30.22F
6HR MIN TEMP:  32; 6HR MAX TEMP:  51;

MEDICINE LODGE   N/A     53  30  41 N7        30.23F
NEWTON         SUNNY     46  27  46 NW7       30.23F
PARSONS        SUNNY     51  31  46 N13       30.21F
WICHITA INTL   MOSUNNY   49  27  42 VRB5      30.22F
6HR MIN TEMP:  35; 6HR MAX TEMP:  49;

WICHITA JABRA  SUNNY     48  27  44 CALM      30.22F
6HR MIN TEMP:  33; 6HR MAX TEMP:  50;

WINFIELD       SUNNY     52  27  38 VRB7      30.23F
6HR MIN TEMP:  32; 6HR MAX TEMP:  53;

$$

KSZ007>012-019>026-033>040-048>060-102>105-261900-
NORTHEAST KANSAS

CITY           SKY/WX    TMP DP  RH WIND       PRES   REMARKS
CONCORDIA      SUNNY     49  25  39 N7        30.19F
6HR MIN TEMP:  25; 6HR MAX TEMP:  50;

EMPORIA        SUNNY     48  25  40 N10       30.20F
6HR MIN TEMP:  31; 6HR MAX TEMP:  48;

LAWRENCE       MOSUNNY   48  28  46 NW15      30.19F
6HR MIN TEMP:  28; 6HR MAX TEMP:  48;

MANHATTAN      SUNNY     48  26  42 VRB3      30.21F
6HR MIN TEMP:  30; 6HR MAX TEMP:  49;

OLATHE IND     SUNNY     46  26  45 N12       30.18F
6HR MIN TEMP:  30; 6HR MAX TEMP:  47;

OLATHE EXE     SUNNY     46  26  45 N10       30.16F
6HR MIN TEMP:  34; 6HR MAX TEMP:  46;

SALINA         MOSUNNY   49  27  42 VRB6      30.22F
6HR MIN TEMP:  27; 6HR MAX TEMP:  49;

TOPEKA BILLARD SUNNY     48  28  46 VRB7G17   30.20F
6HR MIN TEMP:  31; 6HR MAX TEMP:  49;

TOPEKA FORBES  SUNNY     48  27  44 NW10G18   30.19F
6HR MIN TEMP:  33; 6HR MAX TEMP:  48;

$$


USA.gov is the U.S. government's official web portal to all federal, state and local government web resources and services.